| time (UTC) | temp F | wind direction | speed MPH | gust MPH | rain 1hr in | rain 24hr in | rain mn in | humidity % | barometer mb |
| 20260902130139 | 84 | 86 | 4.0 | 10.0 | 0.00 | 0.00 | 0.00 | 56 | 1015.0 |
| 20260902124601 | 84 | 144 | 3.0 | 10.0 | 0.00 | 0.00 | 0.00 | 60 | 1015.2 |
| 20260902123129 | 84 | 203 | 3.0 | 9.0 | 0.00 | 0.00 | 0.00 | 58 | 1015.3 |
| 20260902121608 | 84 | 40 | 1.0 | 9.0 | 0.00 | 0.00 | 0.00 | 60 | 1015.3 |
| 20260902120125 | 83 | 87 | 2.0 | 9.0 | 0.00 | 0.00 | 0.00 | 58 | 1015.4 |
| 20260902114600 | 83 | 15 | 3.0 | 6.0 | 0.00 | 0.00 | 0.00 | 60 | 1015.6 |
| 20260902114502 | 83 | 84 | 4.0 | 6.0 | 0.00 | 0.00 | 0.00 | 59 | 1015.6 |
| 20260902113108 | 82 | 110 | 4.0 | 9.0 | 0.00 | 0.00 | 0.00 | 61 | 1015.8 |
| 20260902111600 | 82 | 185 | 1.0 | 8.0 | 0.00 | 0.00 | 0.00 | 61 | 1016.0 |
| 20260902110137 | 82 | 78 | 3.0 | 7.0 | 0.00 | 0.00 | 0.00 | 60 | 1016.2 |
| 20260902104612 | 81 | 14 | 2.0 | 8.0 | 0.00 | 0.00 | 0.00 | 64 | 1016.4 |
| 20260902103140 | 80 | 128 | 4.0 | 7.0 | 0.00 | 0.00 | 0.00 | 62 | 1016.6 |
| 20260902101603 | 80 | 115 | 2.0 | 7.0 | 0.00 | 0.00 | 0.00 | 63 | 1016.8 |
| 20260902100133 | 79 | 47 | 1.0 | 8.0 | 0.00 | 0.00 | 0.00 | 63 | 1016.9 |
| 20260902094601 | 79 | 9 | 1.0 | 4.0 | 0.00 | 0.00 | 0.00 | 66 | 1017.0 |
| 20260902093138 | 77 | 89 | 0.0 | 6.0 | 0.00 | 0.00 | 0.00 | 67 | 1016.9 |
| 20260902091607 | 76 | 76 | 1.0 | 3.0 | 0.00 | 0.00 | 0.00 | 66 | 1016.9 |
| 20260902090002 | 74 | 24 | 0.0 | 2.0 | 0.00 | 0.00 | 0.00 | 68 | 1017.1 |
| 20260902084607 | 74 | 25 | 0.0 | 2.0 | 0.00 | 0.00 | 0.00 | 71 | 1017.0 |
| 20260902083148 | 73 | 25 | 2.0 | 4.0 | 0.00 | 0.00 | 0.00 | 71 | 1017.0 |
| 20260902081559 | 72 | 27 | 2.0 | 3.0 | 0.00 | 0.00 | 0.00 | 74 | 1016.9 |
| 20260902081502 | 72 | 27 | 2.0 | 3.0 | 0.00 | 0.00 | 0.00 | 74 | 1016.9 |
| 20260902080001 | 71 | 5 | 1.0 | 5.0 | 0.00 | 0.00 | 0.00 | 73 | 1016.8 |
| 20260902074619 | 71 | 14 | 2.0 | 4.0 | 0.00 | 0.00 | 0.00 | 74 | 1016.6 |
| 20260902073129 | 71 | 14 | 0.0 | 2.0 | 0.00 | 0.00 | 0.00 | 75 | 1016.6 |
| 20260902071600 | 71 | 14 | 0.0 | 2.0 | 0.00 | 0.00 | 0.00 | 77 | 1016.5 |
| 20260902070134 | 70 | 14 | 0.0 | 2.0 | 0.00 | 0.00 | 0.00 | 74 | 1016.5 |
| 20260902064559 | 69 | 14 | 1.0 | 3.0 | 0.00 | 0.00 | 0.00 | 77 | 1016.5 |
| 20260902063126 | 68 | 14 | 1.0 | 3.0 | 0.00 | 0.00 | 0.00 | 79 | 1016.4 |
| 20260902061600 | 66 | 14 | 2.0 | 3.0 | 0.00 | 0.00 | 0.00 | 79 | 1016.3 |
| 20260902060003 | 64 | 5 | 2.0 | 5.0 | 0.00 | 0.00 | 0.00 | 83 | 1016.2 |
| 20260902054608 | 63 | 83 | 0.0 | 2.0 | 0.00 | 0.00 | 0.00 | 91 | 1016.1 |
| 20260902053138 | 62 | 332 | 0.0 | 2.0 | 0.00 | 0.00 | 0.00 | 90 | 1015.9 |
| 20260902051619 | 62 | 332 | 0.0 | 2.0 | 0.00 | 0.00 | 0.00 | 90 | 1015.7 |
| 20260902050144 | 62 | 338 | 0.0 | 2.0 | 0.00 | 0.00 | 0.00 | 89 | 1015.7 |
| 20260902044558 | 62 | 343 | 0.0 | 2.0 | 0.00 | 0.00 | 0.00 | 89 | 1015.6 |
| 20260902043124 | 62 | 343 | 1.0 | 2.0 | 0.00 | 0.00 | 0.00 | 89 | 1015.6 |
| 20260902041559 | 62 | 342 | 1.0 | 3.0 | 0.00 | 0.00 | 0.00 | 88 | 1015.6 |
| 20260902040001 | 62 | 344 | 0.0 | 0.0 | 0.00 | 0.00 | 0.00 | 88 | 1015.5 |
| 20260902034600 | 63 | 307 | 0.0 | 0.0 | 0.00 | 0.00 | 0.00 | 88 | 1015.6 |
| 20260902033124 | 63 | 308 | 0.0 | 0.0 | 0.00 | 0.00 | 0.00 | 88 | 1015.6 |
| 20260902031559 | 63 | 306 | 0.0 | 0.0 | 0.00 | 0.00 | 0.00 | 88 | 1015.5 |
| 20260902030132 | 63 | 306 | 0.0 | 0.0 | 0.00 | 0.00 | 0.00 | 88 | 1015.7 |
| 20260902024559 | 63 | 306 | 0.0 | 0.0 | 0.00 | 0.00 | 0.00 | 88 | 1015.5 |
| 20260902023137 | 63 | 306 | 0.0 | 0.0 | 0.00 | 0.00 | 0.00 | 88 | 1015.4 |
| 20260902021602 | 63 | 309 | 0.0 | 0.0 | 0.00 | 0.00 | 0.00 | 87 | 1015.4 |
| 20260902020001 | 64 | 310 | 0.0 | 0.0 | 0.00 | 0.00 | 0.00 | 86 | 1015.3 |
| 20260902014601 | 64 | 317 | 0.0 | 0.0 | 0.00 | 0.00 | 0.00 | 87 | 1015.3 |
| 20260902013100 | 64 | 320 | 0.0 | 0.0 | 0.00 | 0.00 | 0.00 | 87 | 1015.3 |
| 20260902011631 | 65 | 319 | 0.0 | 0.0 | 0.00 | 0.00 | 0.00 | 87 | 1015.4 |
| 20260902010005 | 65 | 321 | 0.0 | 0.0 | 0.00 | 0.00 | 0.00 | 87 | 1015.5 |
| 20260902004601 | 65 | 321 | 0.0 | 0.0 | 0.00 | 0.00 | 0.00 | 86 | 1015.5 |
| 20260902001600 | 66 | 321 | 0.0 | 0.0 | 0.00 | 0.00 | 0.00 | 86 | 1015.5 |
| 20260902000001 | 66 | 320 | 0.0 | 0.0 | 0.00 | 0.00 | 0.00 | 87 | 1015.5 |
| 20260901234657 | 66 | 321 | 0.0 | 0.0 | 0.00 | 0.00 | 0.00 | 87 | 1015.5 |
| 20260901233139 | 66 | 321 | 0.0 | 0.0 | 0.00 | 0.00 | 0.00 | 87 | 1015.6 |
| 20260901231612 | 66 | 321 | 0.0 | 0.0 | 0.00 | 0.00 | 0.00 | 87 | 1015.6 |
| 20260901230125 | 66 | 321 | 0.0 | 0.0 | 0.00 | 0.00 | 0.00 | 86 | 1015.6 |
| 20260901224656 | 66 | 319 | 0.0 | 1.0 | 0.00 | 0.00 | 0.00 | 86 | 1015.7 |
| 20260901223142 | 66 | 327 | 0.0 | 0.0 | 0.00 | 0.00 | 0.00 | 86 | 1015.7 |
| 20260901221619 | 65 | 322 | 0.0 | 0.0 | 0.00 | 0.00 | 0.00 | 85 | 1015.7 |
| 20260901220142 | 65 | 321 | 0.0 | 0.0 | 0.00 | 0.00 | 0.00 | 85 | 1015.7 |
| 20260901214556 | 66 | 322 | 0.0 | 0.0 | 0.00 | 0.00 | 0.00 | 85 | 1015.6 |
| 20260901213132 | 66 | 322 | 0.0 | 0.0 | 0.00 | 0.00 | 0.00 | 83 | 1015.5 |
| 20260901211556 | 66 | 321 | 0.0 | 0.0 | 0.00 | 0.00 | 0.00 | 82 | 1015.5 |
| 20260901210135 | 67 | 326 | 0.0 | 0.0 | 0.00 | 0.00 | 0.00 | 82 | 1015.6 |
| 20260901204611 | 66 | 289 | 0.0 | 0.0 | 0.00 | 0.00 | 0.00 | 82 | 1015.5 |
| 20260901203136 | 67 | 288 | 0.0 | 0.0 | 0.00 | 0.00 | 0.00 | 82 | 1015.6 |
| 20260901201559 | 67 | 286 | 0.0 | 0.0 | 0.00 | 0.00 | 0.00 | 81 | 1015.5 |
| 20260901200136 | 67 | 286 | 0.0 | 0.0 | 0.00 | 0.00 | 0.00 | 81 | 1015.5 |
| 20260901194609 | 68 | 286 | 0.0 | 0.0 | 0.00 | 0.00 | 0.00 | 80 | 1015.3 |
| 20260901193135 | 68 | 288 | 0.0 | 0.0 | 0.00 | 0.00 | 0.00 | 79 | 1015.2 |
| 20260901191635 | 69 | 288 | 0.0 | 0.0 | 0.00 | 0.00 | 0.00 | 79 | 1015.1 |
| 20260901190136 | 70 | 288 | 0.0 | 1.0 | 0.00 | 0.00 | 0.00 | 77 | 1014.8 |
| 20260901184556 | 71 | 314 | 0.0 | 0.0 | 0.00 | 0.00 | 0.00 | 75 | 1014.6 |
| 20260901183130 | 72 | 314 | 0.0 | 0.0 | 0.00 | 0.00 | 0.00 | 75 | 1014.4 |
| 20260901181615 | 74 | 315 | 0.0 | 0.0 | 0.00 | 0.00 | 0.00 | 73 | 1014.3 |
| 20260901180133 | 75 | 313 | 0.0 | 0.0 | 0.00 | 0.00 | 0.00 | 71 | 1014.1 |
| 20260901174558 | 76 | 314 | 0.0 | 0.0 | 0.00 | 0.00 | 0.00 | 70 | 1014.0 |
| 20260901173135 | 78 | 313 | 0.0 | 0.0 | 0.00 | 0.00 | 0.00 | 67 | 1013.9 |
| 20260901171603 | 80 | 35 | 0.0 | 2.0 | 0.00 | 0.00 | 0.00 | 62 | 1013.8 |
| 20260901170140 | 82 | 126 | 0.0 | 3.0 | 0.00 | 0.00 | 0.00 | 60 | 1013.7 |
| 20260901164617 | 82 | 126 | 1.0 | 4.0 | 0.00 | 0.00 | 0.00 | 55 | 1013.7 |
| 20260901163128 | 83 | 111 | 1.0 | 7.0 | 0.00 | 0.00 | 0.00 | 55 | 1013.7 |
| 20260901161557 | 83 | 77 | 3.0 | 5.0 | 0.00 | 0.00 | 0.00 | 55 | 1013.7 |
| 20260901160135 | 84 | 131 | 1.0 | 8.0 | 0.00 | 0.00 | 0.00 | 53 | 1013.9 |
| 20260901154557 | 85 | 119 | 3.0 | 8.0 | 0.00 | 0.00 | 0.00 | 52 | 1013.9 |
| 20260901153135 | 85 | 88 | 2.0 | 7.0 | 0.00 | 0.00 | 0.00 | 51 | 1013.9 |
| 20260901151557 | 85 | 78 | 4.0 | 9.0 | 0.00 | 0.00 | 0.00 | 50 | 1013.9 |
| 20260901150114 | 86 | 96 | 3.0 | 7.0 | 0.00 | 0.00 | 0.00 | 50 | 1014.0 |
| 20260901144601 | 86 | 139 | 2.0 | 8.0 | 0.00 | 0.00 | 0.00 | 47 | 1014.1 |
| 20260901143129 | 86 | 230 | 4.0 | 9.0 | 0.00 | 0.00 | 0.00 | 47 | 1014.1 |
| 20260901141610 | 86 | 114 | 6.0 | 10.0 | 0.00 | 0.00 | 0.00 | 44 | 1014.3 |
| 20260901140137 | 86 | 323 | 1.0 | 8.0 | 0.00 | 0.00 | 0.00 | 44 | 1014.3 |
| 20260901134557 | 86 | 156 | 2.0 | 8.0 | 0.00 | 0.00 | 0.00 | 46 | 1014.4 |
| 20260901133133 | 86 | 139 | 3.0 | 8.0 | 0.00 | 0.00 | 0.00 | 40 | 1014.4 |
| 20260901131559 | 86 | 101 | 3.0 | 7.0 | 0.00 | 0.00 | 0.00 | 43 | 1014.5 |